TimeEET,TemperatureF,Dew PointF,Humidity,Sea Level PressureIn,VisibilityMPH,Wind Direction,Wind SpeedMPH,Gust SpeedMPH,PrecipitationIn,Events,Conditions,WindDirDegrees,DateUTC
6:50 AM,57.2,44.6,63,29.77,6.2,South,8.1,-,N/A,,Mostly Cloudy,170,2012-12-05 04:50:00
7:20 AM,57.2,44.6,63,29.77,6.2,South,8.1,-,N/A,,Mostly Cloudy,170,2012-12-05 05:20:00
7:50 AM,57.2,42.8,59,29.77,6.2,West,9.2,-,N/A,,Scattered Clouds,260,2012-12-05 05:50:00
8:20 AM,57.2,42.8,59,29.77,6.2,West,9.2,-,N/A,,Scattered Clouds,260,2012-12-05 06:20:00
8:50 AM,60.8,44.6,55,29.77,6.2,West,8.1,-,N/A,,Partly Cloudy,270,2012-12-05 06:50:00
9:20 AM,60.8,44.6,55,29.77,6.2,West,8.1,-,N/A,,Partly Cloudy,270,2012-12-05 07:20:00
9:50 AM,60.8,44.6,55,29.77,6.2,SSW,6.9,-,N/A,,Scattered Clouds,210,2012-12-05 07:50:00
10:20 AM,60.8,44.6,55,29.77,6.2,SSW,6.9,-,N/A,,Scattered Clouds,210,2012-12-05 08:20:00
10:50 AM,62.6,46.4,55,29.74,6.2,SSE,6.9,-,N/A,,Scattered Clouds,160,2012-12-05 08:50:00
11:20 AM,62.6,46.4,55,29.74,6.2,SSE,6.9,-,N/A,,Scattered Clouds,160,2012-12-05 09:20:00
11:50 AM,62.6,46.4,55,29.71,6.2,South,8.1,-,N/A,,Mostly Cloudy,190,2012-12-05 09:50:00
12:20 PM,62.6,46.4,55,29.71,6.2,South,8.1,-,N/A,,Mostly Cloudy,190,2012-12-05 10:20:00
12:50 PM,62.6,46.4,55,29.68,6.2,SSW,11.5,-,N/A,,Mostly Cloudy,200,2012-12-05 10:50:00
1:20 PM,62.6,46.4,55,29.68,6.2,South,8.1,-,N/A,,Scattered Clouds,190,2012-12-05 11:20:00
1:50 PM,59.0,50.0,72,29.68,6.2,SW,16.1,-,N/A,Rain,Light Rain,230,2012-12-05 11:50:00
2:20 PM,59.0,50.0,72,29.68,6.2,SW,12.7,-,N/A,,Mostly Cloudy,230,2012-12-05 12:20:00
2:50 PM,59.0,48.2,67,29.68,6.2,SSW,16.1,27.6,N/A,,Mostly Cloudy,210,2012-12-05 12:50:00
4:50 PM,59.0,48.2,67,29.62,6.2,SW,11.5,-,N/A,,Mostly Cloudy,220,2012-12-05 14:50:00
5:20 PM,60.8,48.2,63,29.62,6.2,SSW,16.1,27.6,N/A,,Mostly Cloudy,210,2012-12-05 15:20:00
7:50 PM,57.2,48.2,72,29.65,6.2,WSW,18.4,29.9,N/A,,Scattered Clouds,240,2012-12-05 17:50:00